owner,sensor,date,latitude,longitude,vertical_datum,wind_speed,wind_to_direction,wind_speed_of_gust,qcFlag 
ADCP,ioos:station:wmo:42362:1,2016-06-01T00:30:00Z,27.7950,-90.6480,122.0,99.0,-9999.0,99.0,'11144222,99999999,11144222' 
ADCP,ioos:station:wmo:42362:1,2016-06-01T01:30:00Z,27.7950,-90.6480,122.0,99.0,-9999.0,99.0,'11144222,99999999,11144222' 
ADCP,ioos:station:wmo:42362:1,2016-06-01T02:30:00Z,27.7950,-90.6480,122.0,4.6,125.0,99.0,'11111222,11111222,11144222' 
ADCP,ioos:station:wmo:42362:1,2016-06-01T03:30:00Z,27.7950,-90.6480,122.0,4.7,123.0,99.0,'11111222,11111222,11144222' 
ADCP,ioos:station:wmo:42362:1,2016-06-01T04:30:00Z,27.7950,-90.6480,122.0,4.7,117.0,99.0,'11111222,11111222,11144222' 
ADCP,ioos:station:wmo:42362:1,2016-06-01T05:30:00Z,27.7950,-90.6480,122.0,99.0,-9999.0,99.0,'11144222,99999999,11144222' 
ADCP,ioos:station:wmo:42362:1,2016-06-01T06:30:00Z,27.7950,-90.6480,122.0,3.8,143.0,99.0,'11111222,11111222,11144222' 
ADCP,ioos:station:wmo:42362:1,2016-06-01T07:30:00Z,27.7950,-90.6480,122.0,4.1,141.0,99.0,'11111222,11111222,11144222' 
ADCP,ioos:station:wmo:42362:1,2016-06-01T08:30:00Z,27.7950,-90.6480,122.0,4.3,146.0,99.0,'11111222,11111222,11144222' 
ADCP,ioos:station:wmo:42362:1,2016-06-01T09:30:00Z,27.7950,-90.6480,122.0,4.2,140.0,99.0,'11111222,11111222,11144222' 
ADCP,ioos:station:wmo:42362:1,2016-06-01T10:30:00Z,27.7950,-90.6480,122.0,3.9,141.0,99.0,'11111222,11111222,11144222' 
ADCP,ioos:station:wmo:42362:1,2016-06-01T11:30:00Z,27.7950,-90.6480,122.0,4.8,135.0,99.0,'11111222,11111222,11144222' 
ADCP,ioos:station:wmo:42362:1,2016-06-01T12:30:00Z,27.7950,-90.6480,122.0,6.1,129.0,99.0,'11111222,11111222,11144222' 
ADCP,ioos:station:wmo:42362:1,2016-06-01T13:30:00Z,27.7950,-90.6480,122.0,5.1,138.0,99.0,'11111222,11111222,11144222' 
ADCP,ioos:station:wmo:42362:1,2016-06-01T14:30:00Z,27.7950,-90.6480,122.0,4.9,135.0,99.0,'11111222,11111222,11144222' 
ADCP,ioos:station:wmo:42362:1,2016-06-01T15:30:00Z,27.7950,-90.6480,122.0,5.0,151.0,99.0,'11111222,11111222,11144222' 
ADCP,ioos:station:wmo:42362:1,2016-06-01T16:30:00Z,27.7950,-90.6480,122.0,4.3,154.0,99.0,'11111222,11111222,11144222' 
ADCP,ioos:station:wmo:42362:1,2016-06-01T17:30:00Z,27.7950,-90.6480,122.0,3.9,141.0,99.0,'11111222,11111222,11144222' 
ADCP,ioos:station:wmo:42362:1,2016-06-01T18:30:00Z,27.7950,-90.6480,122.0,4.8,149.0,99.0,'11111222,11111222,11144222' 
ADCP,ioos:station:wmo:42362:1,2016-06-01T19:30:00Z,27.7950,-90.6480,122.0,99.0,-9999.0,99.0,'11144222,99999999,11144222' 
ADCP,ioos:station:wmo:42362:1,2016-06-01T20:30:00Z,27.7950,-90.6480,122.0,99.0,-9999.0,99.0,'11144222,99999999,11144222' 
ADCP,ioos:station:wmo:42362:1,2016-06-01T21:30:00Z,27.7950,-90.6480,122.0,99.0,-9999.0,99.0,'11144222,99999999,11144222' 
ADCP,ioos:station:wmo:42362:1,2016-06-01T22:30:00Z,27.7950,-90.6480,122.0,99.0,-9999.0,99.0,'11144222,99999999,11144222' 
ADCP,ioos:station:wmo:42362:1,2016-06-01T23:30:00Z,27.7950,-90.6480,122.0,99.0,-9999.0,99.0,'11144222,99999999,11144222' 
ADCP,ioos:station:wmo:42362:1,2016-06-02T00:30:00Z,27.7950,-90.6480,122.0,99.0,-9999.0,99.0,'11144222,99999999,11144222' 
ADCP,ioos:station:wmo:42362:1,2016-06-02T01:30:00Z,27.7950,-90.6480,122.0,99.0,-9999.0,99.0,'11144222,99999999,11144222' 
ADCP,ioos:station:wmo:42362:1,2016-06-02T02:30:00Z,27.7950,-90.6480,122.0,3.1,197.0,99.0,'11111222,11111222,11144222' 
ADCP,ioos:station:wmo:42362:1,2016-06-02T03:30:00Z,27.7950,-90.6480,122.0,3.1,197.0,99.0,'11111222,11111222,11144222' 
ADCP,ioos:station:wmo:42362:1,2016-06-02T04:30:00Z,27.7950,-90.6480,122.0,3.1,197.0,99.0,'11111222,11111222,11144222' 
ADCP,ioos:station:wmo:42362:1,2016-06-02T05:30:00Z,27.7950,-90.6480,122.0,3.1,197.0,99.0,'11111222,11111222,11144222' 
ADCP,ioos:station:wmo:42362:1,2016-06-02T06:30:00Z,27.7950,-90.6480,122.0,3.1,197.0,99.0,'11111222,11111222,11144222' 
ADCP,ioos:station:wmo:42362:1,2016-06-02T07:30:00Z,27.7950,-90.6480,122.0,3.1,197.0,99.0,'11111222,11111222,11144222' 
ADCP,ioos:station:wmo:42362:1,2016-06-02T08:30:00Z,27.7950,-90.6480,122.0,3.1,197.0,99.0,'11111222,11111222,11144222' 
ADCP,ioos:station:wmo:42362:1,2016-06-02T09:30:00Z,27.7950,-90.6480,122.0,3.1,197.0,99.0,'11111222,11111222,11144222' 
ADCP,ioos:station:wmo:42362:1,2016-06-02T10:30:00Z,27.7950,-90.6480,122.0,3.1,197.0,99.0,'11111222,11111222,11144222' 
ADCP,ioos:station:wmo:42362:1,2016-06-02T11:30:00Z,27.7950,-90.6480,122.0,3.1,197.0,99.0,'11111222,11111222,11144222' 
ADCP,ioos:station:wmo:42362:1,2016-06-02T12:30:00Z,27.7950,-90.6480,122.0,3.1,197.0,99.0,'11111222,11111222,11144222' 
ADCP,ioos:station:wmo:42362:1,2016-06-02T13:30:00Z,27.7950,-90.6480,122.0,3.1,197.0,99.0,'11111222,11111222,11144222' 
ADCP,ioos:station:wmo:42362:1,2016-06-02T14:30:00Z,27.7950,-90.6480,122.0,3.1,197.0,99.0,'11111222,11111222,11144222' 
ADCP,ioos:station:wmo:42362:1,2016-06-02T15:30:00Z,27.7950,-90.6480,122.0,3.1,197.0,99.0,'11111222,11111222,11144222' 
ADCP,ioos:station:wmo:42362:1,2016-06-02T16:30:00Z,27.7950,-90.6480,122.0,3.1,197.0,99.0,'11111222,11111222,11144222' 
ADCP,ioos:station:wmo:42362:1,2016-06-02T17:30:00Z,27.7950,-90.6480,122.0,3.1,197.0,99.0,'11111222,11111222,11144222' 
ADCP,ioos:station:wmo:42362:1,2016-06-02T18:30:00Z,27.7950,-90.6480,122.0,3.1,197.0,99.0,'11111222,11111222,11144222' 
ADCP,ioos:station:wmo:42362:1,2016-06-02T19:30:00Z,27.7950,-90.6480,122.0,99.0,-9999.0,99.0,'11144222,99999999,11144222' 
ADCP,ioos:station:wmo:42362:1,2016-06-02T20:30:00Z,27.7950,-90.6480,122.0,99.0,-9999.0,99.0,'11144222,99999999,11144222' 
ADCP,ioos:station:wmo:42362:1,2016-06-02T21:30:00Z,27.7950,-90.6480,122.0,99.0,-9999.0,99.0,'11144222,99999999,11144222' 
ADCP,ioos:station:wmo:42362:1,2016-06-02T22:30:00Z,27.7950,-90.6480,122.0,99.0,-9999.0,99.0,'11144222,99999999,11144222' 
ADCP,ioos:station:wmo:42362:1,2016-06-02T23:30:00Z,27.7950,-90.6480,122.0,99.0,-9999.0,99.0,'11144222,99999999,11144222' 
ADCP,ioos:station:wmo:42362:1,2016-06-03T00:30:00Z,27.7950,-90.6480,122.0,99.0,-9999.0,99.0,'11144222,99999999,11144222' 
ADCP,ioos:station:wmo:42362:1,2016-06-03T01:30:00Z,27.7950,-90.6480,122.0,5.5,114.0,99.0,'11111222,11111222,11144222' 
ADCP,ioos:station:wmo:42362:1,2016-06-03T02:30:00Z,27.7950,-90.6480,122.0,6.0,110.0,99.0,'11111222,11111222,11144222' 
ADCP,ioos:station:wmo:42362:1,2016-06-03T03:30:00Z,27.7950,-90.6480,122.0,6.5,101.0,99.0,'11111222,11111222,11144222' 
ADCP,ioos:station:wmo:42362:1,2016-06-03T04:30:00Z,27.7950,-90.6480,122.0,7.1,108.0,99.0,'11111222,11111222,11144222' 
ADCP,ioos:station:wmo:42362:1,2016-06-03T05:30:00Z,27.7950,-90.6480,122.0,7.5,111.0,99.0,'11111222,11111222,11144222' 
ADCP,ioos:station:wmo:42362:1,2016-06-03T06:30:00Z,27.7950,-90.6480,122.0,8.1,114.0,99.0,'11111222,11111222,11144222' 
ADCP,ioos:station:wmo:42362:1,2016-06-03T07:30:00Z,27.7950,-90.6480,122.0,8.3,112.0,99.0,'11111222,11111222,11144222' 
ADCP,ioos:station:wmo:42362:1,2016-06-03T08:30:00Z,27.7950,-90.6480,122.0,8.8,110.0,99.0,'11111222,11111222,11144222' 
ADCP,ioos:station:wmo:42362:1,2016-06-03T09:30:00Z,27.7950,-90.6480,122.0,8.5,116.0,99.0,'11111222,11111222,11144222' 
ADCP,ioos:station:wmo:42362:1,2016-06-03T10:30:00Z,27.7950,-90.6480,122.0,9.6,117.0,99.0,'11111222,11111222,11144222' 
ADCP,ioos:station:wmo:42362:1,2016-06-03T11:30:00Z,27.7950,-90.6480,122.0,9.7,119.0,99.0,'11111222,11111222,11144222' 
ADCP,ioos:station:wmo:42362:1,2016-06-03T12:30:00Z,27.7950,-90.6480,122.0,9.2,117.0,99.0,'11111222,11111222,11144222' 
ADCP,ioos:station:wmo:42362:1,2016-06-03T13:30:00Z,27.7950,-90.6480,122.0,8.7,116.0,99.0,'11111222,11111222,11144222' 
ADCP,ioos:station:wmo:42362:1,2016-06-03T14:30:00Z,27.7950,-90.6480,122.0,8.4,110.0,99.0,'11111222,11111222,11144222' 
ADCP,ioos:station:wmo:42362:1,2016-06-03T15:30:00Z,27.7950,-90.6480,122.0,8.4,113.0,99.0,'11111222,11111222,11144222' 
ADCP,ioos:station:wmo:42362:1,2016-06-03T16:30:00Z,27.7950,-90.6480,122.0,7.9,110.0,99.0,'11111222,11111222,11144222' 
ADCP,ioos:station:wmo:42362:1,2016-06-03T17:30:00Z,27.7950,-90.6480,122.0,7.0,116.0,99.0,'11111222,11111222,11144222' 
ADCP,ioos:station:wmo:42362:1,2016-06-03T18:30:00Z,27.7950,-90.6480,122.0,8.0,118.0,99.0,'11111222,11111222,11144222' 
ADCP,ioos:station:wmo:42362:1,2016-06-03T19:30:00Z,27.7950,-90.6480,122.0,99.0,-9999.0,99.0,'11144222,99999999,11144222' 
ADCP,ioos:station:wmo:42362:1,2016-06-03T20:30:00Z,27.7950,-90.6480,122.0,9.1,129.0,99.0,'11111222,11111222,11144222' 
ADCP,ioos:station:wmo:42362:1,2016-06-03T21:30:00Z,27.7950,-90.6480,122.0,8.5,130.0,99.0,'11111222,11111222,11144222' 
ADCP,ioos:station:wmo:42362:1,2016-06-03T22:30:00Z,27.7950,-90.6480,122.0,99.0,-9999.0,99.0,'11144222,99999999,11144222' 
ADCP,ioos:station:wmo:42362:1,2016-06-03T23:30:00Z,27.7950,-90.6480,122.0,99.0,-9999.0,99.0,'11144222,99999999,11144222' 
ADCP,ioos:station:wmo:42362:1,2016-06-04T00:30:00Z,27.7950,-90.6480,122.0,99.0,37.0,99.0,'11144222,11111222,11144222' 
ADCP,ioos:station:wmo:42362:1,2016-06-04T01:30:00Z,27.7950,-90.6480,122.0,7.9,146.0,99.0,'11111222,11111222,11144222' 
ADCP,ioos:station:wmo:42362:1,2016-06-04T02:30:00Z,27.7950,-90.6480,122.0,4.1,87.0,99.0,'11111222,11111222,11144222' 
ADCP,ioos:station:wmo:42362:1,2016-06-04T03:30:00Z,27.7950,-90.6480,122.0,6.0,114.0,99.0,'11111222,11111222,11144222' 
ADCP,ioos:station:wmo:42362:1,2016-06-04T04:30:00Z,27.7950,-90.6480,122.0,6.0,116.0,99.0,'11111222,11111222,11144222' 
ADCP,ioos:station:wmo:42362:1,2016-06-04T05:30:00Z,27.7950,-90.6480,122.0,6.1,115.0,99.0,'11111222,11111222,11144222' 
ADCP,ioos:station:wmo:42362:1,2016-06-04T06:30:00Z,27.7950,-90.6480,122.0,6.3,114.0,99.0,'11111222,11111222,11144222' 
ADCP,ioos:station:wmo:42362:1,2016-06-04T07:30:00Z,27.7950,-90.6480,122.0,6.2,113.0,99.0,'11111222,11111222,11144222' 
ADCP,ioos:station:wmo:42362:1,2016-06-04T08:30:00Z,27.7950,-90.6480,122.0,8.0,125.0,99.0,'11111222,11111222,11144222' 
ADCP,ioos:station:wmo:42362:1,2016-06-04T09:30:00Z,27.7950,-90.6480,122.0,7.9,128.0,99.0,'11111222,11111222,11144222' 
ADCP,ioos:station:wmo:42362:1,2016-06-04T10:30:00Z,27.7950,-90.6480,122.0,10.1,129.0,99.0,'11111222,11111222,11144222' 
ADCP,ioos:station:wmo:42362:1,2016-06-04T11:30:00Z,27.7950,-90.6480,122.0,9.1,130.0,99.0,'11111222,11111222,11144222' 
ADCP,ioos:station:wmo:42362:1,2016-06-04T12:30:00Z,27.7950,-90.6480,122.0,10.1,130.0,99.0,'11111222,11111222,11144222' 
ADCP,ioos:station:wmo:42362:1,2016-06-04T13:30:00Z,27.7950,-90.6480,122.0,11.7,125.0,99.0,'11111222,11111222,11144222' 
ADCP,ioos:station:wmo:42362:1,2016-06-04T14:30:00Z,27.7950,-90.6480,122.0,15.1,113.0,99.0,'11111222,11111222,11144222' 
ADCP,ioos:station:wmo:42362:1,2016-06-04T15:30:00Z,27.7950,-90.6480,122.0,13.7,133.0,99.0,'11111222,11111222,11144222' 
ADCP,ioos:station:wmo:42362:1,2016-06-04T16:30:00Z,27.7950,-90.6480,122.0,11.9,147.0,99.0,'11111222,11111222,11144222' 
ADCP,ioos:station:wmo:42362:1,2016-06-04T17:30:00Z,27.7950,-90.6480,122.0,9.9,163.0,99.0,'11111222,11111222,11144222' 
ADCP,ioos:station:wmo:42362:1,2016-06-04T18:30:00Z,27.7950,-90.6480,122.0,11.1,143.0,99.0,'11111222,11111222,11144222' 
ADCP,ioos:station:wmo:42362:1,2016-06-04T19:30:00Z,27.7950,-90.6480,122.0,99.0,-9999.0,99.0,'11144222,99999999,11144222' 
ADCP,ioos:station:wmo:42362:1,2016-06-04T20:30:00Z,27.7950,-90.6480,122.0,99.0,-9999.0,99.0,'11144222,99999999,11144222' 
ADCP,ioos:station:wmo:42362:1,2016-06-04T21:30:00Z,27.7950,-90.6480,122.0,99.0,-9999.0,99.0,'11144222,99999999,11144222' 
ADCP,ioos:station:wmo:42362:1,2016-06-04T22:30:00Z,27.7950,-90.6480,122.0,99.0,-9999.0,99.0,'11144222,99999999,11144222' 
ADCP,ioos:station:wmo:42362:1,2016-06-04T23:30:00Z,27.7950,-90.6480,122.0,99.0,-9999.0,99.0,'11144222,99999999,11144222' 
ADCP,ioos:station:wmo:42362:1,2016-06-05T00:30:00Z,27.7950,-90.6480,122.0,99.0,-9999.0,99.0,'11144222,99999999,11144222' 
ADCP,ioos:station:wmo:42362:1,2016-06-05T01:30:00Z,27.7950,-90.6480,122.0,99.0,-9999.0,99.0,'11144222,99999999,11144222' 
ADCP,ioos:station:wmo:42362:1,2016-06-05T02:30:00Z,27.7950,-90.6480,122.0,1.8,266.0,99.0,'11111222,11111222,11144222' 
ADCP,ioos:station:wmo:42362:1,2016-06-05T03:30:00Z,27.7950,-90.6480,122.0,4.7,127.0,99.0,'11111222,11111222,11144222' 
ADCP,ioos:station:wmo:42362:1,2016-06-05T04:30:00Z,27.7950,-90.6480,122.0,6.9,129.0,99.0,'11111222,11111222,11144222' 
ADCP,ioos:station:wmo:42362:1,2016-06-05T05:30:00Z,27.7950,-90.6480,122.0,10.1,123.0,99.0,'11111222,11111222,11144222' 
ADCP,ioos:station:wmo:42362:1,2016-06-05T06:30:00Z,27.7950,-90.6480,122.0,10.1,122.0,99.0,'11111222,11111222,11144222' 
ADCP,ioos:station:wmo:42362:1,2016-06-05T07:30:00Z,27.7950,-90.6480,122.0,8.2,125.0,99.0,'11111222,11111222,11144222' 
ADCP,ioos:station:wmo:42362:1,2016-06-05T08:30:00Z,27.7950,-90.6480,122.0,7.9,122.0,99.0,'11111222,11111222,11144222' 
ADCP,ioos:station:wmo:42362:1,2016-06-05T09:30:00Z,27.7950,-90.6480,122.0,10.1,139.0,99.0,'11111222,11111222,11144222' 
ADCP,ioos:station:wmo:42362:1,2016-06-05T10:30:00Z,27.7950,-90.6480,122.0,10.3,148.0,99.0,'11111222,11111222,11144222' 
ADCP,ioos:station:wmo:42362:1,2016-06-05T11:30:00Z,27.7950,-90.6480,122.0,8.5,129.0,99.0,'11111222,11111222,11144222' 
ADCP,ioos:station:wmo:42362:1,2016-06-05T12:30:00Z,27.7950,-90.6480,122.0,6.8,115.0,99.0,'11111222,11111222,11144222' 
ADCP,ioos:station:wmo:42362:1,2016-06-05T13:30:00Z,27.7950,-90.6480,122.0,5.3,108.0,99.0,'11111222,11111222,11144222' 
ADCP,ioos:station:wmo:42362:1,2016-06-05T14:30:00Z,27.7950,-90.6480,122.0,99.0,-9999.0,99.0,'11144222,99999999,11144222' 
 
DISCLAIMER: The Gulf of Mexico Coastal and Ocean Observing (GCOOS) Data Portal aggregates data from the regional data providers for the convenience of all data users. Data published on this website should not be used for navigation or certain other uses as we cannot guarantee data accuracy or availability. The data and delivery services are provided 'as is' without warranty of any kind. Data Source: Gulf of Mexico Coastal Ocean Observing System Data Portal (http://data.gcoos.org/) 
